Regional Weather Roundup
Issued by NWS

Home | Current Version | Previous Version | Text Only | Print | Product List | Glossary Off
Versions: 1 2 3 4 5 6 7 8 9 10 11 12 13 14 15 16 17 18 19 20 21 22 23 24 25 26 27 28 29 30 31 32 33 34 35 36 37 38 39 40 41 42 43 44 45 46 47 48 49 50

000
ASUS45 KBOI 161410
RWRID

IDAHO REGIONAL WEATHER ROUNDUP
NATIONAL WEATHER SERVICE BOISE ID
700 AM MST MON JAN 16 2017

NOTE: "FAIR" INDICATES FEW OR NO CLOUDS BELOW 12000 FEET
WITH NO SIGNIFICANT WEATHER AND/OR OBSTRUCTIONS TO VISIBILITY

IDZ012-014-161500-
SOUTHWEST IDAHO


CITY           SKY/WX    TMP DP  RH WIND       PRES   REMARKS
BOISE          PTCLDY     1  -2  87 CALM      30.45R
CALDWELL       MOCLDY    -6  -9  84 N3        30.51R FOG
MOUNTAIN HOME  DRIZZLE    3   3 100 CALM      30.43S FOG
$$

IDZ016-017-161500-
SOUTHCENTRAL IDAHO


CITY           SKY/WX    TMP DP  RH WIND       PRES   REMARKS
BURLEY         LGT SNOW  12   8  84 CALM      30.32S FOG
JEROME         PTCLDY     0  -3  87 E7        30.34S WCI -13
TWIN FALLS     CLOUDY     9   6  88 E5        30.33S FOG     WCI   1
$$

IDZ019>023-161500-
SOUTHEAST IDAHO


CITY           SKY/WX    TMP DP  RH WIND       PRES   REMARKS
IDAHO FALLS    FOG       -3  -6  87 N7        30.32F VSB 1   WCI -16
POCATELLO      LGT SNOW   5   1  83 NE5       30.34R FOG     WCI  -4
REXBURG        CLOUDY    -8 -12  83 CALM      30.30F
$$

IDZ006-010-011-018-031-032-161500-
CENTRAL IDAHO MOUNTAINS


CITY           SKY/WX    TMP DP  RH WIND       PRES   REMARKS
MCCALL         CLOUDY    -3  -8  79 CALM      30.23S
HAILEY         CLEAR      1  -2  85 NW7       30.25S WCI -11
STANLEY          N/A    -23 -28  78 CALM      30.31R
SALMON         CLOUDY   -24 -24 100 CALM      30.53S
CHALLIS        PTCLDY   -27 -29  90 CALM      30.41R
$$

IDZ002-004-006-007-026-161500-
NORTHERN IDAHO


CITY           SKY/WX    TMP DP  RH WIND       PRES   REMARKS
LEWISTON       CLOUDY    11   8  88 E5        30.48S WCI   3
LOWELL           N/A      8   4  83 CALM      30.50F
COEUR D`ALENE  FOG       11   9  92 W3        30.39F VSB 3/4
MULLAN PASS    CLEAR     19  14  81 W5        30.15S WCI  12
$$



USA.gov is the U.S. government's official web portal to all federal, state and local government web resources and services.